Tracking 28766 objects as of 13-Apr-2024
HD Live streaming from Space Station
objects crossing your sky now

FENGYUN 1C DEB

Track FENGYUN 1C DEB now!
10-day predictions


NORAD ID: 30411
Int'l Code: 1999-025AEA
Perigee: 799.2 km
Apogee: 1,001.8 km
Inclination: 98.6 °
Period: 102.8 minutes
Semi major axis: 7271 km
RCS: 0.03 m2 (small)
Launch date: May 10, 1999
Source: People's Republic of China (PRC)
Launch site: Taiyaun Space Center, China (TSC)

Note: This is SATELLITE DEBRIS
Your satellite tracking list
Your tracking list is empty




NASA's NSSDC Master Catalog

Two Line Element Set (TLE):
1 30411U 99025AEA 24103.37306151  .00004562  00000-0  28697-2 0  9991
2 30411  98.5736  41.3083 0139315  25.7046 335.0959 14.00113607874303
Source of the keplerian elements: AFSPC